星链-6048 (STARLINK-6048 )

导读

STARLINK-6048是美国SpaceX星链互联网卫星项目中的卫星,于2023年5月10日发射。作为星链星座的组成部分,它旨在为全球各地提供高速互联网接入服务,尤其是服务于偏远地区与网络基础设施薄弱区域。此次发射进一步扩充了星链星座的规模,推动了星链全球网络覆盖目标的实现。

Basic Information
目录编号:
56459
目录名称:
STARLINK-6048
国际标识:
2023-064M
轨道中心:
EARTH
卫星名称:
星链-6048
卫星全名:
星链-6048 (STARLINK-6048 )
卫星状态:
在轨 (已飞行1132 天)
发射日期:
2023-05-10 UTC
国别 :
美国 (US)
星等 :
--
Orbit Information
数据来源 国际轨道数据 AOE轨道数据
星历时间 2026-06-14T22:05:47+0800
10小时前
查看轨道信息
2026-06-14T05:00:00+0800
1天前
查看轨道信息
半长轴 6950.194km 6950.158km
偏心率 0.0003294 0.0001485
轨道倾角 70.000° 70.000°
近地点辐角 268.513° 286.014°
升交点赤经 260.009° 261.802°
平近点角 91.565° 192.775°
近地点 569.767km 570.988km
远地点 574.347km 573.054km
周期 96.107分钟 96.106分钟
每日圈数 14.983298 14.983416
Detailed Information
固有亮度:
5
最大亮度:
2.5
卫星平台:
Starlink v1.5
覆盖范围:
全球
运营商:
太空探索技术公司
运营商所在国:
美国
制造商(研发单位):
太空探索技术公司
制造商所在国:
美国
使用方式:
暂无
Satellite Introduction
星链(Starlink)计划是由太空探索技术公司(SpaceX)提出的一个巨型低轨卫星互联网星座项目,计划在2019年至2024年间在太空搭建由约1.2万颗卫星组成的“星链”网络,其中1584颗将部署在地球上空550千米处的近地轨道,并从2020年开始工作。该卫星仍在工作。
2D Orbit Map
3D Orbit Map
Orbit Altitude Analysis Chart
Orbit Inclination Analysis Chart
Orbit Comprehensive Analysis Chart
View Comprehensive Chart